Simultaneous Nadir Overpasses (SNOs) Predictions

Prediction of SNOs between METOP-B and NOAA-19 Satellite Orbit:

Table of predicted SNOs for the next 14.0 days since TLE Epoch: 9/14/2024
Index Date (METOP-B) Time (METOP-B) Lat,Lon (METOP-B) SZA (METOP-B ) Date (NOAA-19) Time (NOAA-19) Lat,Lon (NOAA-19) SZA (NOAA-19 ) Distance(km) Time Diff (sec)
1 09/22/2024 18:47:55 -75.58,-178.24 86.03 09/22/2024 18:46:49 -75.58,-178.24 86.10 0.41 66
2 09/22/2024 19:38:32 75.36, -10.24 94.20 09/22/2024 19:37:39 75.36, -10.25 94.14 0.40 53
3 09/22/2024 20:29:00 -74.79, 158.70 85.24 09/22/2024 20:28:29 -74.77, 158.78 85.25 3.18 31
4 09/22/2024 21:19:40 74.71, -33.75 94.86 09/22/2024 21:19:23 74.73, -33.82 94.81 3.15 17
5 09/22/2024 22:10:07 -74.09, 135.18 84.54 09/22/2024 22:10:12 -74.09, 135.19 84.53 0.20 5
6 09/22/2024 23:00:42 73.75, -56.69 95.79 09/22/2024 23:01:00 73.75, -56.67 95.82 0.60 18
7 09/22/2024 23:51:13 -73.32, 111.63 83.80 09/22/2024 23:51:54 -73.34, 111.56 83.77 2.92 41
8 09/23/2024 00:41:46 72.87, -80.09 96.63 09/23/2024 00:42:40 72.89, -80.14 96.68 2.32 54



Historial Predications of SNOs between METOP-B and NOAA-19
